{"data":{"norad_id":66326,"epoch":"2026-05-24T23:51:39.921120Z","epoch_age_seconds":75709,"freshness":"FRESH","line1":"1 66326U 25253H   26144.99421205  .00022988  00000+0  84199-3 0  9991","line2":"2 66326  43.0004 141.6307 0001254 264.3110  95.7598 15.27591172 31914","mean_motion":15.27591172,"eccentricity":0.0001254,"inclination_deg":43.0004,"raan_deg":141.6307,"arg_perigee_deg":264.311,"mean_anomaly_deg":95.7598,"bstar":0.00084199,"rev_number":3191,"period_min":94.266059296132,"perigee_km":482.15525471496,"apogee_km":483.87603179789,"semimajor_km":6861.1526432564,"source":"CELESTRAK","updated_at":"2026-05-25T13:38:21.167962Z"}}